De Queen, AR

3:45 AM CDT on October 21, 2019 (GMT -0500)
Helms Sevier County

Weather History for KDEQ - August, 2019

Change the Weather History Date:

Saturday, August 17, 2019

  Actual Average Record
Temperature  
Mean Temperature 84 °F 82 °F  
Max Temperature 98 °F 94 °F 106 °F (1956)
Min Temperature 70 °F 69 °F 54 °F (1992)
Degree Days  
Heating Degree Days 0 0  
Month to date heating degree days 0 0  
Since 1 June heating degree days 0 0  
Since 1 July heating degree days 0 0  
Cooling Degree Days 19 17  
Month to date cooling degree days 326 285  
Year to date cooling degree days 1463 1377  
Since 1 June cooling degree days 1190 1160  
Growing Degree Days 34 (Base 50)    
Moisture  
Dew Point 74 °F    
Average Humidity 74    
Maximum Humidity 100    
Minimum Humidity 49    
Precipitation  
Precipitation 0.00 in 0.06 in 1.97 in (1961)
Month to date precipitation 0.35 1.16  
Year to date precipitation 37.43 30.58  
Snow  
Snow 0.00 in - - ()
Month to date snowfall 0.0  
Since 1 June snowfall 0.0  
Since 1 July snowfall 0.0  
Snow Depth 0.00 in    
Sea Level Pressure  
Sea Level Pressure 29.86 in    
Wind  
Wind Speed 3 mph ()    
Max Wind Speed 13 mph    
Max Gust Speed 17 mph    
Visibility 8.6 miles    
Events      
T = Trace of Precipitation, MM = Missing Value Source: Averaged Metar Reports

Daily Weather History Graph

Daily Weather History Graph

Search for Another Location

Airport or City:

Astronomy

Aug. 17, 2019 Rise Set
Actual Time 6:40 AM CDT 8:02 PM CDT
Civil Twilight 6:14 AM CDT 8:28 PM CDT
Nautical Twilight 5:42 AM CDT 9:00 PM CDT
Astronomical Twilight 5:09 AM CDT 9:32 PM CDT
Moon 9:35 PM CDT (8/17) 8:26 AM CDT (8/17)
Length of Visible Light 14h 14m
Length of Day
13h 22m
Waning Gibbous, 96% of the Moon is Illuminated
Aug 17
Waning Gibbous
Aug 23
Last Quarter
Aug 30
New
Sep 5
First Quarter
Sep 13
Full

Hourly Weather History & Observations

Time (CDT) Temp. Heat Index Dew Point Humidity Pressure Visibility Wind Dir Wind Speed Gust Speed Precip Events Conditions
12:53 AM 75.0 °F - 73.0 °F 94% 29.90 in 10.0 mi Calm Calm - N/A   Clear
1:53 AM 73.0 °F - 73.0 °F 100% 29.89 in 8.0 mi Calm Calm - N/A   Clear
2:53 AM 73.0 °F - 73.0 °F 100% 29.88 in 5.0 mi Calm Calm - N/A   Clear
3:53 AM 72.0 °F - 72.0 °F 100% 29.86 in 4.0 mi North 3.5 mph - N/A   Clear
4:53 AM 71.1 °F - 71.1 °F 100% 29.86 in 4.0 mi Calm Calm - N/A   Clear
5:53 AM 71.1 °F - 71.1 °F 100% 29.88 in 4.0 mi NNE 3.5 mph - N/A   Clear
6:53 AM 71.1 °F - 71.1 °F 100% 29.91 in 5.0 mi NE 3.5 mph - N/A   Clear
7:53 AM 75.9 °F - 73.9 °F 94% 29.90 in 6.0 mi Calm Calm - N/A   Clear
8:53 AM 82.0 °F 88.6 °F 75.0 °F 79% 29.91 in 10.0 mi Calm Calm - N/A   Clear
9:53 AM 86.0 °F 96.9 °F 77.0 °F 74% 29.90 in 10.0 mi SW 4.6 mph - N/A   Clear
10:53 AM 88.0 °F 100.2 °F 77.0 °F 70% 29.90 in 10.0 mi Variable 6.9 mph - N/A   Clear
11:53 AM 90.0 °F 101.3 °F 75.9 °F 63% 29.90 in 10.0 mi Calm Calm - N/A   Partly Cloudy
12:53 PM 93.0 °F 104.6 °F 75.0 °F 56% 29.88 in 10.0 mi South 5.8 mph - N/A   Scattered Clouds
1:53 PM 95.0 °F 105.2 °F 73.9 °F 50% 29.85 in 10.0 mi SSW 9.2 mph - N/A   Partly Cloudy
2:53 PM 95.0 °F 104.5 °F 73.0 °F 49% 29.83 in 10.0 mi South 8.1 mph - N/A   Partly Cloudy
3:53 PM 95.0 °F 105.2 °F 73.9 °F 50% 29.82 in 10.0 mi ESE 6.9 mph - N/A   Mostly Cloudy
4:53 PM 93.0 °F 101.9 °F 73.0 °F 52% 29.81 in 10.0 mi SE 5.8 mph - N/A   Clear
5:53 PM 95.0 °F 104.5 °F 73.0 °F 49% 29.80 in 10.0 mi ESE 5.8 mph - N/A   Partly Cloudy
6:53 PM 93.0 °F 103.2 °F 73.9 °F 54% 29.79 in 10.0 mi SSE 5.8 mph - N/A   Clear
7:53 PM 89.1 °F 99.1 °F 75.0 °F 63% 29.79 in 10.0 mi SE 3.5 mph - N/A   Clear
8:53 PM 86.0 °F 95.1 °F 75.0 °F 70% 29.80 in 10.0 mi ESE 4.6 mph - N/A   Clear
9:53 PM 84.9 °F 93.3 °F 75.0 °F 72% 29.82 in 10.0 mi ESE 3.5 mph - N/A   Scattered Clouds
10:53 PM 84.9 °F 92.1 °F 73.9 °F 69% 29.85 in 10.0 mi SSE 10.4 mph 17.3 mph N/A   Partly Cloudy
11:53 PM 82.9 °F 89.4 °F 73.9 °F 74% 29.84 in 10.0 mi SE 5.8 mph - N/A   Clear